Location: Monrovia
(34.7865°N, 86.7139°W)
Time: 22:09:05
(UTC+00:00)

Landsat 7 - Pass Details

Date: 14 July 2020
Orbit: 701 x 703 km, 98.1° (Epoch: 08 August)

Event Time Altitude Azimuth Distance (km) Brightness Sun altitude
Exits shadow 03:07:34 47° 172° (S) 933 4.0 -21.3°
Maximum altitude 03:08:58 85° 257° (WSW) 710 3.7 -21.5°
Drops below altitude 10° 03:13:45 10° 347° (NNW) 2,174 7.2 -22.1°
Sets 03:16:01 0° 348° (NNW) 3,096 8.2 -22.4°
